Vertical_Velocity
1 -7 -1 -3 -0 -1 -1 -1 -1 1 -0 -1 1 -1 -2 -2 -2 -2 1 -2 -1 -1
-1 1 3 2 -2 -3 -1 -3 -2 -1 -1 -1 -2 -1 -1 0 -1 -2 -1 -0 -2 -3
-2 -0 -1 0 1 -1 -1 -4 -2 -2 -1 -2 -1 -1 -1 -0 -3 -1 -1 0 -1 -2
-3 1 -2 0 -3 0 -1 -2 -1 -2 -3 -3 -1 0 0 -1 -4 -3 -3 -3 -3 -1
2 -1 -3 0 2 -4 -3 -2 -3 -1 0 -0 -2 -3 -1 -1 -2 -2 -3 -3 -2 -2
-1 0 -1 -2 -4 -3 -2 -1 0 -0 -1 -2 -2 -2 -1 -0 -1 -3 -4 -4 -4 -4
-1 1 -3 -2 -3 -1 -0 1 -2 -5 -4 -2 -1 -0 -0 -2 -2 -1 -1 -2 -4 -4
2 -3 -0 0 -0 -0 1 -3 -4 -4 -4 -0 -0 -2 -2 -1 -1 -2 -3 -3 -2 -2
-3 -1 2 1 1 -0 -1 -0 -2 -3 -2 -3 -3 -3 -3 -3 -2 -2 -1 -1 -0 1
0 2 1 2 -1 -1 -1 -1 -2 -1 -2 -1 -2 -1 -2 -1 -2 -2 -2 -1 -1 -0
1 1 1 1 -2 -1 -2 -1 -1 -0 -0 1 1 0 -0 -1 -0 -2 -2 -2 -2 -2
1 1 1 -2 -1 -1 -1 0 -1 -1 0 0 1 0 -1 -0 0 -0 -1 -1 -2 -3
1 -1 -1 -1 0 -2 1 1 -0 0 -1 -2 -1 -1 -2 -3 -2 -2 -2 -3 -2 -2
-0 -0 0 1 -2 -1 1 1 0 -2 -1 -1 -1 -1 -2 -3 -2 -2 -2 -1 0 -0
Height
5633 5631 5627 5624 5621 5619 5614 5611 5607 5604 5601 5598 5596 5594 5591 5588 5586 5584 5582 5580 5579 5578
5622 5620 5617 5614 5611 5608 5604 5601 5596 5593 5589 5585 5582 5580 5576 5574 5571 5569 5567 5564 5562 5560
5613 5611 5609 5604 5600 5597 5594 5590 5586 5582 5577 5573 5570 5566 5563 5560 5557 5554 5550 5547 5544 5541
5605 5602 5600 5596 5592 5588 5584 5580 5576 5571 5567 5562 5558 5553 5548 5544 5540 5537 5533 5529 5526 5524
5598 5595 5592 5588 5584 5581 5577 5572 5567 5563 5557 5551 5545 5540 5537 5533 5529 5526 5522 5518 5515 5512
5591 5588 5585 5582 5579 5575 5570 5566 5561 5555 5549 5543 5539 5535 5532 5528 5525 5521 5517 5514 5511 5507
5584 5581 5579 5576 5573 5570 5566 5562 5557 5552 5547 5542 5537 5533 5530 5526 5523 5519 5515 5512 5509 5505
5576 5575 5573 5571 5569 5567 5564 5561 5557 5552 5548 5544 5540 5535 5530 5526 5522 5518 5514 5511 5508 5504
5570 5568 5567 5565 5565 5564 5562 5559 5556 5552 5548 5545 5541 5537 5533 5529 5525 5521 5518 5515 5511 5507
5564 5562 5561 5561 5562 5561 5560 5557 5555 5551 5548 5545 5541 5538 5535 5531 5527 5523 5520 5516 5513 5509
5557 5556 5556 5557 5558 5558 5557 5556 5553 5550 5547 5544 5541 5538 5534 5530 5526 5523 5519 5515 5511 5507
5552 5552 5553 5555 5555 5555 5554 5553 5551 5548 5545 5542 5539 5536 5532 5529 5525 5521 5517 5513 5509 5505
5549 5550 5551 5552 5552 5552 5552 5550 5547 5545 5542 5538 5535 5532 5528 5525 5521 5517 5513 5509 5505 5500
5547 5548 5548 5549 5549 5548 5547 5545 5543 5540 5538 5535 5531 5528 5524 5520 5516 5512 5508 5504 5500 5496